Preview of NWS' New Version of Forecast
This preview is not operational and should not be used for support decisions.
Latest weather observations around

Williamsburg-Whitley County Airport (KBYL)

Using English Units (Switch to International System of Units)
Date/ Time (EDT) Wind (mph) Vis. (mi) Weather Sky Cond. Temp (°F) Rel. Humidity Wind Chill (°F) Heat Index (°F) Pressure Precip. (in)
Air Dwpt 6 hour Altimeter (inHg) Sea level (inHg) 1 hr 3 hr 6 hr
Max Min
Mar 21 22:15 NW 5 10 Cloudy FEW040 OVC046 39 34     81% 36   30.02        
Mar 21 21:55 NW 5 10 Cloudy FEW039 OVC048 39 34     81% 36   30.01        
Mar 21 21:35 NW 7 10 Clear   39 32     75% 34   30.01        
Mar 21 21:15 NW 7 10 Cloudy OVC048 39 32     75% 34   30        
Mar 21 20:55 NW 10 10 Cloudy FEW032 SCT042 OVC048 41 32     70% 35   29.99        
Mar 21 20:35 NW 8 10 Cloudy SCT032 BKN039 OVC055 41 32     70% 36   29.99        
Mar 21 20:15 NW 7 10 Cloudy BKN033 BKN041 OVC050 41 32     70% 36   29.98        
Mar 21 19:55 WNW 6 10 Cloudy FEW037 OVC060 41 32     70% 37   29.97        
Mar 21 19:35 NW 6 10 Clear   41 36     81% 37   29.96        
Mar 21 19:15 WNW 7 10 Cloudy BKN027 OVC039 41 39     93% 36   29.95        
Mar 21 18:55 NW 7 10 Clear   41 41     100% 36   29.94        
Mar 21 18:35 NW 8 10 Clear   41 41     100% 36   29.93        
Mar 21 18:15 NNW 8 10 Clear   45 41     87% 40   29.92        
Mar 21 17:55 NW 9 9 Clear   43 41     93% 37   29.9        
Mar 21 17:35 WNW 10 2.5 Clear   41 39     93% 35   29.91        
Mar 21 17:15 WNW 7 10 Clear   48 34     57% 45   29.88        
Mar 21 16:55 WNW 14 10 Clear   50 32     50%     29.86        
Mar 21 16:35 W 15 10 Mostly Clear FEW110 55 32     41%     29.85        
Mar 21 16:15 WSW 9 10 Clear   54 36     50%     29.85        
Mar 21 15:55 W 13 10 Clear   50 37     62%     29.86        
Mar 21 15:35 W 8 10 Clear   54 39     58%     29.86        
Mar 21 15:15 Calm 10 Clear   48 39     71%     29.87        
Mar 21 14:55 Calm 10 Clear   48 41     76%     29.88        
Mar 21 14:35 S 6 10 Clear   48 41     76% 46   29.89        
Mar 21 14:15 NW 6 10 Clear   45 39     81% 41   29.9        
Mar 21 13:55 W 7 10 Cloudy BKN026 BKN036 OVC060 48 41     76% 45   29.89        
Mar 21 13:35 W 6 10 Clear   50 45     82%     29.91        
Mar 21 13:15 Calm 10 Clear   46 45     93%     29.92        
Mar 21 12:55 NW 6 10 Clear   48 46     93% 46   29.93        
Mar 21 12:35 W 3 10 Clear   45 45     100% 43   29.93        
Mar 21 12:15 Calm 9 Clear   45 45     100%     29.93        
Mar 21 11:55 W 3 5 Clear   45 45     100% 43   29.94        
Mar 21 11:35 Calm 4 Clear   45 45     100%     29.95        
Mar 21 11:15 Calm 5 Clear   45 45     100%     29.94        
Mar 21 10:55 Calm 6 Clear   45 43     93%     29.94        
Mar 21 10:35 W 3 8 Clear   45 43     93% 43   29.94        
Mar 21 10:15 W 3 7 Clear   43 43     100% 41   29.94        
Mar 21 09:55 Calm 10 Cloudy OVC022 43 43     100%     29.94        
Mar 21 09:35 Calm 10 Clear   43 43     100%     29.94        
Mar 21 09:15 Calm 10 Clear   45 39     81%     29.94        
Mar 21 08:55 Calm 10 Clear   45 39     81%     29.94        
Mar 21 08:35 Calm 10 Cloudy BKN028 OVC043 43 41     93%     29.94        
Mar 21 08:15 Calm 8 Clear   45 37     76%     29.94        
Mar 21 07:55 Calm 9 Clear   45 39     81%     29.95        
Mar 21 07:35 Calm 10 Clear   45 37     76%     29.95        
Mar 21 07:15 Calm 10 Clear   46 37     71%     29.95        
Mar 21 06:55 WNW 5 10 Clear   46 37     71% 44   29.95        
Mar 21 06:35 WNW 3 10 Clear   45 37     76% 43   29.96        
Mar 21 06:15 Calm 10 Clear   45 37     76%     29.95        
Mar 21 05:55 Calm 10 Clear   46 36     66%     29.96        
Mar 21 05:35 Calm 10 Clear   46 36     66%     29.96        
Mar 21 05:15 WNW 6 10 Clear   46 32     57% 44   29.97        
Mar 21 04:55 Calm 10 Clear   46 30     53%     29.96        
Mar 21 04:35 Calm 10 Clear   48 30     50%     29.97        
Mar 21 04:15 Calm 10 Clear   48 28     46%     29.97        
Mar 21 03:55 Calm 4 Clear   48 28     46%     29.97        
Mar 21 03:35 Calm 9 Clear   48 27     43%     29.98        
Mar 21 03:15 W 3 4 Clear   48 27     43% 47   29.99        
Mar 21 02:55 NW 5 2.5 Clear   45 32     61% 42   29.99        
Mar 21 02:35 NW 6 7 Clear   46 32     57% 44   29.99        
Mar 21 02:15 Calm 10 Clear   48 27     43%     29.99        
Mar 21 01:55 Calm 10 Clear   48 28     46%     29.99        
Mar 21 01:35 Calm 10 Clear   46 28     49%     29.99        
Mar 21 01:15 Calm 10 Clear   46 27     46%     30        
Mar 21 00:55 Calm 10 Clear   48 27     43%     30.01        
Mar 21 00:35 Calm 10 Clear   46 28     49%     30.01        
Mar 21 00:15 Calm 10 Clear   48 27     43%     30.02        
Mar 20 23:55 SSE 3 10 Clear CLR 48 27     43% 47   30.02        
Mar 20 23:35 Calm 10 Clear   48 27     43%     30.02        
Mar 20 23:15 Calm 10 Clear   48 25     40%     30.02        
Mar 20 22:55 Calm 10 Clear   48 25     40%     30.03        
Mar 20 22:35 Calm 10 Clear   48 27     43%     30.03        
Mar 20 22:15 Calm 10 Clear   50 27     40%     30.03        
Mar 20 21:55 Calm 10 Clear CLR 50 25     37%     30.04        
Mar 20 21:35 Calm 10 Clear   55 23     28%     30.04        
Mar 20 21:15 Calm 10 Clear   55 25     30%     30.04        
Mar 20 20:55 Calm 10 Clear   55 23     28%     30.04        
Mar 20 20:35 WNW 3 10 Clear   54 25     32%     30.04        
Mar 20 20:15 SE 6 10 Clear   55 23     28%     30.03        
Mar 20 19:55 SE 6 10 Clear   57 25     29%     30.03        
Mar 20 19:35 SSE 9 10 Clear   59 25     27%     30.03        
Mar 20 19:15 SSE 3 10 Clear   61 23     23%     30.03        
Mar 20 18:55 SE 3 10 Clear   59 23     25%     30.03        
Mar 20 18:35 Calm 10 Clear   63 21     20%     30.03        
Mar 20 18:15 Calm 10 Clear CLR 61 21     22%     30.03        
Mar 20 17:55 W 3 10 Clear CLR 61 21     22%     30.04        
Mar 20 17:35 SW 5 10 Clear   63 23     22%     30.05        
Mar 20 17:15 SW 5 10 Clear   63 21     20%     30.06        
Mar 20 16:55 WSW 5 10 Clear CLR 63 21     20%     30.07        
Mar 20 16:15 SE 3 10 Clear CLR 63 23     22%     30.08        
Mar 20 15:55 SSE 6 10 Clear   63 23     22%     30.09        
Mar 20 15:35 E 3 10 Clear CLR 63 23     22%     30.1        
Mar 20 15:15 SE 6   Clear   63 21     20%     30.11        
Mar 20 14:55 SW 6 8 Clear   63 21     20%     30.13        
Mar 20 14:35 SE 6 10 Clear CLR 59 19     21%     30.15        
Mar 20 14:15 Calm 10 Clear CLR 59 19     21%     30.16        
Mar 20 13:55 WSW 5 10 Clear CLR 59 19     21%     30.17        
Mar 20 13:35 SW 3 10 Clear CLR 57 19     23%     30.18        
Mar 20 13:15 Calm 10 Clear CLR 57 19     23%     30.19        
Mar 20 12:55 Calm 10 Clear CLR 55 19     24%     30.2        
Mar 20 12:35 SE 7 10 Clear   55 21     26%     30.21        
Mar 20 12:15 SE 6 10 Clear   55 21     26%     30.23        
Mar 20 11:55 SE 5 10 Clear   54 23     30%     30.23        
Mar 20 11:35 SE 6 10 Clear CLR 50 23     34%     30.24        
Mar 20 11:15 SE 6 10 Clear   50 23     34%     30.25        
Mar 20 10:55 ESE 7 10 Clear   48 23     37% 45   30.25        
Mar 20 10:35 SE 8 10 Clear   46 25     42% 42   30.25        
Mar 20 10:15 SSE 5 10 Clear   41 27     56% 38   30.25        
Mar 20 09:55 SSE 5 10 Clear   39 27     60% 36   30.26        
Mar 20 09:35 SE 3 10 Clear CLR 36 27     69% 33   30.27        
Mar 20 09:15 SE 3 10 Clear   36 27     69% 33   30.27        
Mar 20 08:55 SE 3 10 Clear   32 27     80% 29   30.27        
Mar 20 08:35 Calm 10 Clear CLR 32 27     80%     30.27        
Mar 20 08:15 Calm 10 Clear   30 27     86%     30.27        
Mar 20 07:55 Calm 10 Clear   28 27     93%     30.27        
Mar 20 07:35 Calm 10 Clear CLR 28 27     93%     30.27        
Mar 20 07:15 Calm 10 Clear   28 27     93%     30.27        
Mar 20 06:55 Calm 10 Clear CLR 28 25     86%     30.26        
Mar 20 06:35 Calm 10 Mostly Clear FEW120 28 27     93%     30.26        
Mar 20 06:15 Calm 10 Clear   28 25     86%     30.25        
Mar 20 05:55 Calm 10 Clear   28 25     86%     30.25        
Mar 20 05:35 Calm 10 Clear CLR 28 25     86%     30.25        
Mar 20 05:15 Calm 10 Clear   28 27     93%     30.25        
Mar 20 04:55 Calm 10 Clear CLR 30 25     80%     30.25        
Mar 20 04:35 Calm 10 Clear CLR 28 25     86%     30.26        
Mar 20 04:15 Calm 10 Clear   28 27     93%     30.26        
Mar 20 03:55 Calm 10 Clear   32 25     74%     30.26        
Mar 20 03:35 Calm 10 Clear CLR 32 25     74%     30.27        
Mar 20 03:15 Calm 10 Clear   32 25     74%     30.28        
Mar 20 02:55 Calm 10 Clear   32 23     69%     30.28        
Mar 20 02:35 Calm 10 Clear   32 23     69%     30.28        
Mar 20 02:15 Calm 10 Clear   32 23     69%     30.29        
Mar 20 01:55 Calm 10 Clear   32 21     64%     30.29        
Mar 20 01:35 Calm 10 Clear CLR 32 21     64%     30.3        
Mar 20 01:15 Calm 10 Clear   32 23     69%     30.3        
Mar 20 00:55 Calm 10 Clear CLR 32 19     59%     30.3        
Mar 20 00:35 Calm 10 Clear CLR 36 19     51%     30.3        
Mar 20 00:15 Calm 10 Clear   37 19     48%     30.31        
Mar 19 23:55 Calm 10 Clear   37 19     48%     30.31        
Mar 19 23:35 Calm 10 Clear CLR 37 19     48%     30.31        
Mar 19 23:15 Calm 10 Clear   39 19     45%     30.31        
Mar 19 22:55 NE 5 10 Clear CLR 39 19     45% 36   30.31        
Mar 19 22:35 Calm 10 Clear CLR 41 18     38%     30.31        
Mar 19 22:15 Calm 10 Clear   39 18     41%     30.31        
Mar 19 21:55 Calm 10 Clear   39 18     41%     30.31        
Mar 19 21:35 Calm 10 Clear CLR 41 16     36%     30.31        
Mar 19 21:15 N 3 10 Clear   41 16     36% 39   30.31        
Mar 19 20:55 NNE 3 10 Clear   45 16     31% 43   30.31        
Mar 19 20:35 Calm 10 Clear CLR 46 14     27%     30.3        
Mar 19 20:15 Calm 10 Clear CLR 48 10     21%     30.3        
Mar 19 19:55 Calm 10 Clear   48 12     23%     30.3        
Mar 19 19:35 N 3 10 Clear CLR 50 14     23%     30.3        
Mar 19 19:15 N 5 10 Clear   50 16     25%     30.3        
Mar 19 18:55 N 3 10 Clear CLR 52 16     24%     30.3        
Mar 19 18:35 NNW 5 10 Clear CLR 54 16     22%     30.3        
Mar 19 18:15 NNE 5 10 Clear   54 18     24%     30.31        
Mar 19 17:55 N 6 10 Clear   54 16     22%     30.31        
Mar 19 17:35 N 6 10 Clear CLR 54 16     22%     30.31        
Mar 19 17:15 ENE 7 10 Clear   54 18     24%     30.32        
Mar 19 16:55 NE 3 10 Clear   54 18     24%     30.32        
Mar 19 16:35 ENE 3 10 Clear CLR 54 16     22%     30.32        
Mar 19 16:15 N 5 10 Clear   54 18     24%     30.33        
Mar 19 15:55 N 3 10 Clear   54 18     24%     30.33        
Mar 19 15:35 Calm 10 Clear CLR 52 18     26%     30.34        
Mar 19 15:15 Calm 10 Clear   52 18     26%     30.35        
Mar 19 14:55 Calm 10 Clear   52 18     26%     30.36        
Mar 19 14:35 NNE 5 10 Clear CLR 52 18     26%     30.38        
Mar 19 14:15 N 5 10 Clear CLR 50 19     30%     30.39        
Mar 19 13:55 Calm 10 Clear CLR 50 18     27%     30.4        
Mar 19 13:35 NNW 6 10 Clear CLR 50 18     27%     30.41        
Mar 19 13:15 ENE 8 10 Clear   48 18     29% 45   30.42        
Mar 19 12:55 Calm 9 Clear   48 19     32%     30.43        
Mar 19 12:35 NE 8 10 Clear CLR 46 18     31% 42   30.43        
Mar 19 12:15 ENE 5 10 Clear   46 18     31% 44   30.44        
Mar 19 11:55 E 9 10 Clear   46 19     34% 42   30.44        
Mar 19 11:35 Calm 10 Clear   45 19     36%     30.45        
Mar 19 11:15 S 6 10 Clear   45 19     36% 41   30.45        
Mar 19 10:55 SSE 5 10 Clear CLR 43 19     39% 40   30.45        
Mar 19 10:35 S 5 10 Clear CLR 41 23     48% 38   30.45        
Mar 19 10:15 Calm 10 Clear   39 25     56%     30.45        
Mar 19 09:55 Calm 10 Clear   36 27     69%     30.45        
Mar 19 09:35 Calm 10 Clear CLR 32 25     74%     30.45        
Mar 19 09:15 Calm 10 Clear   32 25     74%     30.45        
Mar 19 08:55 Calm 10 Clear   28 25     86%     30.44        
Mar 19 08:35 SSE 5 10 Clear CLR 28 25     86% 23   30.42        
Mar 19 08:15 Calm 10 Clear   25 25     100%     30.41        
Mar 19 07:55 Calm 10 Clear   25 25     100%     30.41        
Mar 19 07:35 Calm 10 Clear   25 23     93%     30.4        
Mar 19 07:15 Calm 10 Clear   27 23     86%     30.38        
Mar 19 06:55 Calm 10 Clear   27 23     86%     30.38        
Mar 19 06:35 Calm 10 Clear   27 23     86%     30.38        
Mar 19 06:15 Calm 10 Clear   27 23     86%     30.37        
Mar 19 05:55 Calm 10 Clear   27 23     86%     30.37        
Mar 19 05:35 Calm 10 Clear   28 23     80%     30.36        
Mar 19 05:15 Calm 10 Clear   27 23     86%     30.36        
Mar 19 04:55 Calm 10 Clear   27 23     86%     30.36        
Mar 19 04:35 Calm 10 Clear   27 23     86%     30.36        
Mar 19 04:15 Calm 10 Clear CLR 28 23     80%     30.36        
Mar 19 03:55 Calm 10 Clear   27 23     86%     30.37        
Mar 19 03:35 Calm 10 Clear CLR 28 23     80%     30.37        
Mar 19 03:15 Calm 10 Clear CLR 28 23     80%     30.37        
Mar 19 02:55 Calm 10 Clear   30 23     74%     30.38        
Mar 19 02:35 Calm 10 Clear CLR 30 23     74%     30.38        
Mar 19 02:15 Calm 10 Clear   30 23     74%     30.39        
Mar 19 01:55 Calm 10 Clear   28 21     74%     30.39        
Mar 19 01:35 Calm 10 Clear   28 25     86%     30.39        
Mar 19 01:15 Calm 10 Clear   32 19     59%     30.39        
Mar 19 00:55 Calm 10 Clear   32 19     59%     30.39        
Mar 19 00:35 Calm 10 Clear CLR 32 19     59%     30.39        
Mar 19 00:15 Calm 10 Clear   32 19     59%     30.38        
Mar 18 23:55 Calm 10 Clear   32 19     59%     30.38        
Mar 18 23:35 Calm 10 Clear CLR 36 18     48%     30.39        
Mar 18 23:15 Calm 10 Clear   37 18     44%     30.39        
Mar 18 22:55 NE 3 10 Clear   37 16     41% 35   30.39        
Mar 18 22:35 NE 3 10 Clear CLR 37 18     44% 35   30.39        
May 15 12:15 SSW 5 10 Clear   84 68     58%   87 30.01        
May 15 11:15 SSW 6 10 Clear   81 68     66%   83 30.02        
May 15 07:55 Calm 10 Clear   66 66     100%     30.02        
May 14 20:35 Calm 10 Clear   81 66     62%   83 29.97        
May 14 18:55 S 3 10 Clear   84 64     52%   86 29.98        
Notice The following observation data may not be complete
May 14 17:55   10 Clear            %              
May 14 12:35 N 3 10 Clear   82 64     55%   84 30.1        
May 13 23:35 Calm 10 Clear   68 64     88%     30.11        
May 13 21:35 Calm 10 Clear   75 61     61%   75 30.07        
May 13 20:35 WNW 5 10 Clear   79 61     54%   79 30.06        
May 13 13:55 W 6 10 Clear   84 61     45%   84 30.11        
May 13 09:15 Calm 9 Clear   66 64     94%     30.17        
May 13 08:15 Calm 9 Clear   61 61     100%     30.16        
May 13 02:35 Calm 8 Clear   59 59     100%     30.11        
May 12 16:55 WNW 8 10 Clear   84 57     40%   83 30.1        
May 12 11:55 WSW 7 10 Clear   81 59     48%   81 30.19        
May 12 09:55 SSW 6 10 Clear   75 63     65%   75 30.19        
May 12 03:55 Calm 10 Clear   63 63     100%     30.11        
May 12 01:15 SSE 7 10 Clear   64 63     94%     30.1        
May 11 22:15 Calm 10 Clear   72 59     65%   71 30.08        
May 11 14:35 SW 8 10 Clear   84 61     45%   84 30.09